Flag for Colombia Weather past 2 weeks in Bogota, Colombia

Now
63 °F

Scattered showers. Partly sunny.


Feels Like: 63 °F
Forecast: 46 / 65 °F
Wind: 9 mph from Southeast

Location: Bogota / Eldorado

Current Time: Aug 1, 2014 at 11:56:36 AM

Latest Report: Aug 1, 2014 at 11:00 AM


Visibility: N/A

Pressure: 30.35 "Hg

Humidity: 52%

Dew point: 45 °F

Location of BogotaLocation

Historic Weather in Bogota — Graph

°F

Bogota temperature yesterday

Maximum temperature yesterday: 66 °F (at 12:00 PM)
Minimum temperature yesterday: 48 °F (at 2:00 AM)
Average temperature yesterday: 58 °F

Past Weeks' High & Low Weather Summary

 TemperatureHumidityPressure
High70 °F (Jul 26, 1:00 PM)100% (Aug 1, 8:00 AM)30.45 "Hg (Aug 1, 8:00 AM)
Low46 °F (Jul 29, 3:00 AM)35% (Jul 25, 3:00 PM)30.24 "Hg (Jul 25, 5:00 PM)
Average57 °F70%30.36 "Hg
* Reported Jul 17 10:00 AM — Aug 1 10:00 AM, Bogota, Weather by CustomWeather, © 2014

Note: Actual official high and low records may vary slightly from our data, if they occured in-between our weather recording intervals... More about our weather records

Advertising

Bogota weather history for previous 24 hours

 ConditionsComfort  
Time TempWeatherWind HumidityBarometerVisibility
10:00 AM
Aug 1
61 °FPartly sunny.16 mph55%30.36 "HgN/A
9:00 AM59 °FPartly sunny.9 mph63%30.36 "HgN/A
8:00 AM59 °FScattered clouds.5 mph100%30.35 "HgN/A
7:40 AM55 °FScattered clouds.7 mph77%30.34 "HgN/A
7:00 AM50 °FScattered clouds.5 mph88%30.33 "HgN/A
6:00 AM46 °FPartly sunny.6 mph93%30.32 "HgN/A
5:00 AM48 °FPassing clouds.5 mph87%30.31 "HgN/A
4:00 AM48 °FPassing clouds.3 mph94%30.31 "HgN/A
3:00 AM50 °FPassing clouds.3 mph88%30.32 "HgN/A
2:00 AM52 °FPassing clouds.5 mph88%30.33 "HgN/A
1:00 AM52 °FPassing clouds.No wind88%30.35 "HgN/A
12:00 AM52 °FPassing clouds.7 mph88%30.37 "HgN/A
11:00 PM
Jul 31
54 °FPassing clouds.3 mph82%30.40 "HgN/A
10:00 PM54 °FPassing clouds.No wind72%30.39 "HgN/A
9:00 PM55 °FPassing clouds.2 mph72%30.37 "HgN/A
8:00 PM57 °FPassing clouds.7 mph72%30.34 "HgN/A
7:00 PM59 °FPassing clouds.5 mph72%30.32 "HgN/A
6:00 PM61 °FPartly sunny.3 mph59%30.29 "HgN/A
5:00 PM63 °FPartly sunny.10 mph52%30.27 "HgN/A
4:00 PM64 °FPartly sunny.8 mph49%30.28 "HgN/A
3:00 PM66 °FPartly sunny.8 mph43%30.30 "HgN/A
2:00 PM66 °FPartly sunny.10 mph49%30.33 "HgN/A
1:00 PM66 °FPartly sunny.12 mph43%30.35 "HgN/A
12:00 PM66 °FPartly sunny.18 mph49%30.37 "HgN/A
11:00 AM63 °FPartly sunny.16 mph52%30.39 "HgN/A
Weather by CustomWeather, © 2014

See weather overviewHow to use our weather pages